Temperature
17 17 17 17 18 18 18 18 18 18 18 18 18 17 17 17 17 17 18 17 17 17 17 17 17 17 17 17 17 17 17 18 17 18 18 18 18 18 18 18 18 18 18
17 17 17 17 17 18 18 18 18 18 17 17 17 17 17 17 17 17 17 17 17 17 17 17 17 17 17 17 17 17 17 17 17 17 18 18 18 18 18 18 18 18 18
17 17 17 17 17 17 17 17 17 17 17 17 17 17 17 17 17 17 17 17 17 17 17 17 17 17 17 17 17 17 17 17 17 17 17 17 17 17 18 18 18 18 18
17 17 17 17 17 17 17 17 17 17 17 17 17 17 17 17 17 17 17 17 17 17 17 17 17 17 17 17 17 17 17 17 17 17 17 17 17 17 17 17 18 18 18
17 17 17 17 17 17 17 17 17 17 17 17 17 17 17 17 16 17 17 17 17 17 17 17 17 17 17 17 17 17 17 17 17 17 17 17 17 17 17 17 17 17 17
17 17 17 17 17 17 17 17 17 17 17 17 16 16 16 16 16 16 16 16 17 17 16 16 16 16 16 16 16 17 17 17 17 17 17 17 17 17 17 17 17 17 17
17 17 17 17 17 17 17 17 16 16 16 16 16 16 16 16 16 16 16 16 16 16 16 16 16 16 16 16 16 16 16 17 17 17 17 17 17 17 17 17 17 17 17
17 17 17 17 17 16 16 16 16 16 16 16 16 16 16 16 16 16 16 16 16 16 16 16 16 16 16 16 16 16 16 16 16 16 16 16 16 17 17 17 17 17 17
17 17 17 17 17 16 16 16 16 16 16 16 16 16 16 16 16 16 16 16 16 16 16 16 16 16 16 16 16 16 16 16 16 16 16 16 16 16 17 17 17 17 17
17 17 17 17 16 16 16 16 16 16 16 16 16 16 16 16 16 16 16 16 16 16 16 16 16 16 16 16 16 16 16 16 16 16 16 16 16 16 16 16 16 16 17
17 17 17 17 16 16 16 16 16 16 16 16 16 16 16 16 16 16 16 16 16 16 16 16 16 16 16 16 16 16 16 16 16 16 16 16 16 16 16 16 16 16 16
17 17 17 16 16 16 16 16 16 16 16 16 16 16 16 16 16 16 16 16 16 16 16 16 16 16 16 16 16 16 16 16 16 16 16 16 16 16 16 16 16 16 16
17 17 16 16 16 16 16 16 16 16 16 16 16 16 16 16 16 16 16 16 16 16 16 16 16 16 16 16 16 16 16 16 16 16 15 16 16 16 16 16 16 16 16
17 17 17 17 16 16 16 16 16 16 16 16 16 16 16 16 16 16 16 16 16 16 16 16 16 16 15 15 16 16 15 15 15 15 15 15 15 15 15 15 16 16 16
17 17 17 17 16 16 16 16 16 16 16 16 16 16 16 16 16 16 16 16 16 16 16 16 15 15 15 15 15 15 15 15 15 15 15 15 15 15 15 15 15 15 15
17 17 17 17 16 16 16 16 16 16 16 16 16 16 16 16 16 16 16 16 16 16 16 16 15 15 15 15 15 15 15 15 15 15 15 15 15 15 15 15 15 15 15
17 17 17 17 16 16 16 16 16 16 16 16 16 16 16 16 15 15 16 16 15 15 15 15 15 15 15 15 15 15 15 15 15 15 15 15 15 15 15 15 15 15 15
17 17 17 17 16 16 16 16 16 16 16 16 16 16 16 16 16 16 15 15 15 15 15 15 15 15 15 15 15 15 14 14 14 14 14 14 14 15 15 15 15 15 15
17 17 17 17 16 16 16 16 16 16 16 16 16 16 16 16 15 15 15 15 15 15 15 15 15 15 15 15 15 14 14 14 14 14 14 14 14 14 14 14 15 15 14
17 17 17 16 16 16 16 16 16 16 16 16 16 16 16 15 15 15 15 15 15 15 15 15 15 15 15 15 15 14 14 14 14 14 14 14 14 14 14 14 14 14 14
17 17 17 16 16 16 16 16 16 16 16 16 15 15 15 15 15 15 15 15 15 15 15 15 15 15 15 15 15 14 14 14 14 14 14 14 14 14 14 14 14 14 14
17 17 16 16 16 16 16 16 16 16 16 15 15 15 15 15 15 15 15 15 15 15 15 15 15 15 15 14 14 14 14 13 13 13 13 13 13 13 13 13 13 13 13
17 17 17 16 16 16 16 16 16 16 15 15 15 15 15 15 15 15 15 15 15 15 15 15 15 15 15 15 14 14 14 13 13 13 13 13 13 13 13 13 13 13 13
17 17 17 16 16 16 16 16 16 16 15 15 15 15 15 15 15 15 15 15 15 15 15 15 15 15 15 15 14 14 14 14 14 13 13 13 13 13 13 13 13 13 13
17 17 17 16 16 16 16 16 16 16 15 15 15 15 15 15 15 15 15 15 15 15 15 15 15 15 15 15 14 14 14 14 14 13 13 12 13 12 12 12 12 12 12
17 17 17 16 16 16 16 16 16 16 15 15 15 15 15 15 15 15 15 15 15 15 15 15 15 15 14 14 14 14 14 14 14 14 13 13 12 12 12 12 12 12 12
Wind_Speed
1 0 3 8 10 11 11 11 12 13 13 13 13 13 13 13 13 12 12 12 11 11 11 11 10 10 11 11 10 10 9 9 9 9 8 7 6 6 6 7 7 6 7
1 3 6 8 10 11 11 11 12 12 12 12 13 12 12 12 12 12 11 11 11 11 11 11 11 10 10 10 9 9 9 9 9 9 9 8 6 5 6 7 7 6 7
3 5 7 9 10 11 11 11 12 12 12 12 12 11 11 11 11 11 11 10 10 10 11 11 10 10 10 10 9 9 9 9 9 9 9 8 7 6 7 6 7 7 6
5 5 7 10 10 10 11 11 11 11 11 11 11 10 10 10 10 10 10 10 9 10 10 10 10 10 10 10 9 9 9 8 9 9 8 8 7 7 8 7 7 6 6
6 6 7 9 9 9 10 10 11 10 10 10 10 10 10 9 9 9 9 8 8 9 9 9 9 10 10 9 9 9 9 9 10 9 9 8 7 7 7 7 6 6 6
5 6 7 9 9 9 10 10 10 10 10 10 10 9 9 9 8 8 8 8 8 8 8 9 9 9 9 9 9 9 9 9 9 9 8 7 6 7 7 7 7 6 6
4 5 6 8 8 9 9 9 9 9 9 10 9 9 8 8 8 8 8 7 7 8 8 8 8 8 9 9 9 10 9 9 9 7 6 6 5 6 7 7 7 7 7
4 4 6 7 8 9 9 9 8 8 8 8 8 8 7 7 7 7 7 8 8 8 8 8 8 8 9 9 9 9 9 8 7 6 6 5 5 7 7 7 6 7 7
5 5 6 7 8 8 8 8 8 7 7 8 7 7 7 6 6 7 7 7 7 8 8 9 8 9 9 9 10 10 9 8 7 5 5 5 6 7 7 7 7 6 6
4 4 5 6 7 8 7 7 8 8 8 8 8 8 8 8 8 8 7 7 7 8 8 8 8 9 9 9 9 10 10 8 8 7 5 5 6 7 7 7 7 7 7
3 3 3 4 5 6 6 7 8 9 9 8 8 9 9 9 9 9 9 8 8 8 8 9 9 10 10 10 9 10 9 8 7 7 5 6 7 8 8 8 8 8 8
1 1 2 3 3 5 5 6 7 7 7 8 8 8 8 8 8 8 10 10 10 10 9 10 10 9 9 9 9 10 8 8 7 6 6 8 8 8 8 8 8 8 8
2 0 2 2 3 4 4 4 4 5 6 6 7 6 6 7 7 8 9 9 9 9 8 9 9 9 8 8 8 8 8 8 7 7 8 9 8 9 9 9 9 9 9
2 1 1 2 2 3 3 3 3 4 4 5 5 5 5 5 5 6 6 7 7 7 7 7 7 8 9 9 9 9 9 8 8 9 9 11 10 10 10 10 10 10 9
3 2 2 2 3 3 3 3 3 3 4 5 5 5 5 4 3 4 5 6 7 7 6 6 6 7 7 8 9 10 9 9 10 11 11 13 13 12 12 12 12 11 11
4 4 3 3 3 4 3 3 3 4 5 6 6 5 6 5 4 4 4 5 6 6 6 6 6 6 6 7 8 9 9 9 11 11 12 13 15 15 15 14 13 13 13
5 4 4 3 4 4 4 4 4 4 5 5 5 6 6 6 5 5 3 4 4 6 7 7 7 7 6 6 7 7 8 9 10 11 11 12 13 15 15 15 14 13 14
5 5 4 4 5 4 4 4 5 5 6 6 6 7 7 7 7 6 4 3 5 6 6 5 4 5 6 6 6 6 7 8 9 10 11 12 12 13 14 16 15 15 15
6 5 4 4 5 5 5 5 6 6 6 6 7 7 7 7 7 7 5 4 6 6 4 4 5 4 5 5 6 6 6 6 7 9 10 11 12 13 14 15 17 17 16
5 5 5 5 5 5 4 4 4 4 5 6 6 6 6 7 7 7 6 6 6 4 4 4 5 5 4 5 7 7 6 6 7 7 8 9 11 13 14 14 14 15 17
5 5 5 5 4 4 3 3 3 2 2 3 5 6 7 7 7 7 5 5 5 4 4 4 4 6 4 3 5 5 5 6 8 7 7 8 9 11 13 14 13 13 14
7 6 5 5 5 4 3 3 3 3 2 2 3 6 7 7 6 6 5 4 4 4 5 4 4 3 3 3 3 3 3 5 5 7 6 7 7 9 11 12 13 14 13
8 8 7 5 5 4 4 4 4 4 3 3 3 3 5 6 7 7 6 5 4 4 3 3 3 4 3 3 3 3 3 1 1 4 6 6 7 7 7 10 13 13 14
9 7 6 5 5 5 5 5 5 4 3 1 1 2 4 6 7 7 6 6 5 4 4 3 3 3 3 2 3 4 3 3 3 1 3 4 6 7 7 8 10 12 13
7 7 6 5 5 5 5 6 6 4 3 2 2 4 3 4 6 7 7 6 5 4 4 4 4 4 3 3 2 2 3 4 3 3 1 3 4 4 5 7 9 11 13
6 6 6 6 5 5 5 6 7 7 5 5 4 3 2 2 3 5 6 6 5 4 4 4 4 4 3 4 3 3 2 2 2 2 2 1 2 3 4 5 8 9 11
Wind_Direction
313 307 112 106 102 102 101 101 104 102 102 101 99 96 94 93 93 93 92 90 88 86 83 80 79 77 76 74 74 73 71 67 65 65 59 63 68 73 77 78 77 76 81
163 112 112 107 103 102 103 100 100 99 98 98 95 93 92 92 92 90 89 89 87 85 83 79 76 74 72 71 71 73 72 67 67 64 55 50 55 69 82 82 82 81 80
87 98 110 109 104 103 102 101 100 97 97 96 93 93 92 92 92 89 86 86 84 82 81 78 76 72 70 68 67 70 70 68 68 63 51 39 41 65 83 80 83 85 82
87 90 105 107 105 105 103 103 101 98 96 97 97 95 91 90 90 88 87 86 82 80 79 74 72 70 66 65 67 69 72 70 69 61 49 40 43 65 76 77 77 79 82
86 86 97 103 107 108 104 101 101 100 96 95 95 94 92 89 87 84 83 83 80 80 79 73 68 66 64 64 67 71 73 72 68 60 53 45 41 63 69 69 70 73 75
84 87 101 106 106 108 105 101 99 98 93 93 93 92 91 87 84 82 81 78 75 77 78 76 71 67 63 64 67 70 70 69 64 57 50 41 39 60 67 67 66 72 76
85 82 95 106 106 104 104 101 98 93 91 91 91 88 87 84 83 80 76 72 71 72 73 71 70 66 61 62 66 67 70 71 67 57 47 36 44 62 67 68 67 69 74
89 75 71 89 96 96 98 97 93 90 88 86 84 82 80 76 73 72 70 66 65 66 64 64 64 61 61 63 65 68 68 70 66 55 43 37 53 64 64 65 68 68 68
73 66 55 59 68 73 81 88 85 81 82 82 77 72 69 65 63 62 62 62 59 57 56 58 62 64 65 64 64 65 64 67 64 52 43 39 58 64 61 61 63 66 66
62 55 51 49 53 54 54 68 75 74 73 73 72 67 60 53 50 46 43 48 51 48 49 53 60 67 69 66 64 61 57 60 53 46 35 40 57 62 60 60 63 64 65
71 43 44 44 46 50 50 55 58 60 58 59 59 59 53 44 39 37 38 46 49 47 47 54 62 67 68 63 61 60 55 52 50 43 36 47 54 59 59 59 60 62 62
133 48 51 51 47 48 54 55 51 50 50 54 55 53 49 45 41 42 42 46 51 54 56 57 62 64 63 58 58 60 53 50 50 40 42 51 54 57 57 56 57 60 61
162 123 75 78 64 61 57 59 49 49 50 51 53 55 54 50 45 43 39 39 43 51 54 54 57 59 62 61 61 61 56 55 51 42 43 50 56 59 57 54 54 58 58
140 139 108 107 85 77 78 68 55 52 55 53 53 57 59 52 46 41 38 38 43 49 58 60 63 65 67 65 66 64 57 57 51 45 41 52 60 60 56 52 53 53 53
138 140 136 120 113 95 83 75 68 58 66 66 60 58 67 65 53 47 42 42 44 54 65 66 68 69 69 67 66 66 58 54 53 49 43 50 54 53 52 51 51 51 50
154 154 138 125 113 101 95 87 74 68 72 73 64 66 77 76 70 62 50 44 44 56 67 74 75 76 71 71 65 63 60 56 55 51 46 44 47 49 48 48 47 45 46
155 145 139 132 107 105 101 89 81 74 76 69 64 72 79 80 79 77 66 52 49 64 74 76 72 76 75 71 61 56 57 56 57 53 49 46 44 45 46 46 44 44 42
147 141 142 131 115 107 98 87 79 74 72 66 70 72 76 81 84 81 72 57 61 72 77 79 70 74 71 70 64 51 51 51 50 52 51 48 45 42 42 44 43 43 41
151 141 126 117 119 115 102 89 78 71 66 64 65 65 69 76 81 83 75 63 70 73 69 81 70 80 81 78 73 57 46 47 46 51 49 47 46 45 43 41 43 43 40
145 135 127 117 114 114 100 84 68 56 49 54 55 58 67 72 79 81 75 63 70 75 66 70 80 69 76 84 81 64 48 43 46 43 42 45 47 46 45 42 40 38 38
145 142 144 138 136 125 106 101 94 77 44 42 45 54 65 72 76 76 74 64 66 77 80 83 84 77 63 64 81 62 41 42 46 37 36 42 42 44 46 43 41 38 34
166 163 158 153 149 142 128 124 118 114 87 65 47 52 55 66 73 79 78 77 72 81 75 74 84 87 60 40 90 90 47 17 21 28 31 38 34 39 43 42 40 38 34
175 178 175 169 158 149 135 113 90 70 58 46 38 39 38 62 72 77 82 81 75 83 91 82 91 105 104 44 53 114 122 155 7 6 24 32 29 34 33 36 37 35 32
187 178 170 167 161 156 146 138 135 133 130 144 106 72 53 62 68 73 79 80 77 77 83 81 78 88 109 93 52 50 89 136 128 44 360 13 26 34 28 31 31 31 30
182 173 169 163 161 161 156 151 141 134 137 119 91 83 66 54 60 68 75 76 74 72 75 74 76 76 87 105 98 82 71 64 79 121 79 353 11 16 22 25 29 28 28
176 169 167 163 167 163 158 155 154 153 148 130 117 108 86 60 49 58 75 78 78 74 72 75 79 82 81 87 87 88 106 106 113 117 131 83 12 349 7 23 27 23 26
Height
1529 1529 1529 1529 1529 1529 1529 1530 1530 1531 1531 1532 1532 1532 1532 1533 1533 1533 1533 1534 1534 1535 1535 1535 1536 1536 1536 1537 1537 1537 1537 1537 1537 1537 1537 1537 1537 1537 1537 1538 1538 1538 1538
1529 1530 1530 1530 1531 1531 1531 1531 1532 1532 1533 1533 1533 1534 1534 1534 1534 1535 1535 1535 1536 1536 1536 1537 1537 1537 1538 1538 1538 1538 1538 1538 1538 1538 1538 1538 1537 1537 1537 1538 1539 1539 1540
1530 1531 1531 1532 1532 1532 1533 1533 1533 1534 1534 1534 1534 1535 1535 1536 1536 1536 1536 1537 1537 1537 1537 1538 1538 1539 1539 1539 1539 1539 1539 1540 1540 1539 1539 1539 1537 1536 1537 1539 1540 1540 1541
1531 1532 1533 1533 1534 1534 1534 1534 1535 1535 1535 1536 1536 1536 1537 1537 1537 1537 1538 1538 1538 1538 1538 1539 1539 1540 1540 1540 1540 1541 1541 1541 1541 1540 1540 1540 1539 1539 1540 1540 1541 1541 1542
1533 1534 1534 1535 1535 1535 1535 1536 1536 1537 1537 1537 1537 1538 1538 1538 1538 1539 1539 1539 1539 1540 1540 1540 1540 1541 1541 1541 1541 1542 1542 1542 1542 1542 1541 1541 1541 1541 1541 1542 1542 1542 1543
1535 1535 1536 1536 1536 1537 1537 1538 1538 1538 1538 1539 1539 1539 1539 1539 1540 1540 1540 1540 1541 1541 1541 1541 1541 1542 1542 1543 1543 1543 1543 1543 1543 1543 1543 1542 1542 1542 1543 1543 1543 1543 1544
1536 1537 1538 1538 1538 1539 1539 1540 1540 1540 1540 1540 1541 1541 1541 1541 1541 1541 1542 1542 1542 1542 1542 1542 1542 1543 1543 1544 1544 1544 1544 1544 1544 1544 1544 1543 1543 1543 1543 1544 1544 1544 1544
1538 1539 1540 1540 1540 1541 1541 1542 1542 1542 1542 1542 1542 1542 1542 1542 1542 1543 1543 1543 1543 1543 1544 1544 1544 1544 1544 1545 1545 1545 1545 1545 1545 1545 1545 1544 1544 1544 1544 1544 1545 1545 1545
1540 1541 1542 1542 1542 1543 1543 1543 1544 1544 1544 1544 1544 1544 1544 1544 1544 1544 1544 1544 1545 1545 1545 1545 1545 1546 1546 1546 1546 1546 1546 1546 1546 1546 1546 1545 1545 1545 1545 1545 1546 1546 1546
1543 1544 1544 1545 1545 1545 1545 1545 1545 1546 1546 1546 1545 1545 1545 1546 1546 1546 1546 1546 1546 1546 1547 1547 1547 1547 1547 1547 1547 1548 1548 1547 1547 1547 1547 1547 1546 1546 1546 1546 1546 1546 1546
1544 1545 1546 1547 1547 1547 1547 1548 1548 1548 1547 1547 1547 1547 1547 1547 1547 1547 1547 1548 1548 1548 1548 1548 1548 1548 1548 1549 1549 1549 1548 1548 1548 1548 1548 1548 1547 1547 1547 1547 1547 1547 1547
1546 1547 1548 1549 1549 1549 1549 1550 1550 1549 1549 1549 1549 1549 1549 1549 1549 1549 1549 1549 1549 1549 1550 1550 1550 1550 1550 1550 1550 1550 1550 1549 1549 1549 1549 1548 1548 1548 1548 1548 1548 1548 1548
1547 1548 1550 1550 1551 1551 1551 1551 1551 1551 1551 1551 1551 1551 1551 1551 1551 1551 1551 1551 1551 1551 1551 1551 1551 1551 1551 1551 1551 1551 1551 1551 1551 1550 1550 1549 1549 1549 1549 1548 1548 1548 1548
1548 1550 1551 1552 1552 1552 1553 1553 1553 1553 1553 1553 1553 1553 1553 1553 1553 1553 1553 1553 1553 1553 1553 1553 1553 1553 1553 1553 1553 1553 1553 1553 1552 1552 1550 1549 1549 1549 1550 1549 1549 1549 1549
1549 1551 1552 1553 1553 1554 1554 1554 1554 1555 1555 1555 1555 1555 1555 1555 1554 1554 1554 1554 1554 1554 1554 1554 1554 1554 1554 1554 1554 1554 1554 1554 1554 1553 1552 1551 1551 1551 1551 1550 1550 1550 1549
1550 1551 1553 1554 1554 1555 1555 1556 1556 1556 1556 1556 1556 1556 1556 1556 1556 1556 1555 1555 1555 1555 1555 1555 1555 1556 1556 1556 1556 1556 1556 1556 1555 1555 1554 1554 1553 1552 1552 1551 1551 1550 1550
1551 1552 1553 1554 1555 1556 1556 1557 1557 1557 1558 1558 1558 1558 1558 1558 1557 1557 1557 1556 1556 1556 1556 1556 1557 1557 1557 1557 1558 1558 1558 1558 1558 1557 1556 1556 1555 1554 1553 1552 1551 1551 1550
1551 1553 1554 1555 1556 1557 1557 1558 1558 1559 1559 1559 1559 1559 1559 1559 1559 1558 1558 1558 1558 1558 1558 1558 1558 1558 1559 1559 1559 1560 1560 1560 1559 1559 1558 1558 1556 1555 1555 1554 1553 1552 1551
1552 1553 1555 1556 1557 1558 1558 1559 1559 1560 1560 1560 1560 1560 1560 1560 1560 1559 1559 1559 1559 1559 1559 1559 1559 1560 1560 1561 1561 1561 1562 1561 1561 1561 1560 1559 1558 1557 1556 1555 1554 1553 1552
1552 1554 1555 1556 1557 1558 1559 1560 1560 1561 1561 1561 1562 1562 1561 1561 1561 1561 1560 1560 1560 1560 1560 1561 1561 1561 1562 1562 1562 1563 1563 1563 1563 1562 1562 1561 1560 1559 1558 1557 1556 1555 1553
1552 1554 1555 1556 1558 1559 1559 1560 1560 1561 1562 1562 1562 1562 1563 1562 1562 1562 1562 1562 1561 1561 1562 1562 1562 1563 1563 1563 1564 1564 1565 1565 1564 1564 1564 1563 1562 1561 1560 1558 1557 1556 1555
1551 1553 1555 1556 1558 1559 1560 1560 1561 1562 1562 1563 1563 1563 1563 1563 1563 1563 1563 1563 1563 1563 1563 1563 1564 1564 1564 1565 1565 1565 1566 1567 1566 1566 1565 1565 1564 1563 1561 1560 1559 1558 1556
1550 1552 1554 1556 1558 1559 1560 1560 1561 1562 1563 1563 1564 1564 1564 1564 1564 1564 1564 1564 1564 1564 1564 1564 1565 1565 1565 1566 1566 1567 1567 1567 1567 1568 1567 1566 1565 1564 1563 1562 1561 1560 1558
1549 1551 1554 1556 1557 1559 1560 1560 1561 1562 1562 1563 1564 1564 1565 1565 1565 1565 1565 1565 1566 1566 1566 1566 1566 1566 1566 1566 1567 1567 1568 1567 1568 1568 1569 1568 1567 1566 1565 1564 1563 1562 1560
1548 1550 1553 1555 1556 1558 1559 1560 1561 1562 1563 1564 1564 1565 1566 1566 1566 1566 1566 1567 1567 1567 1567 1567 1567 1567 1567 1567 1567 1567 1568 1568 1568 1568 1569 1569 1568 1567 1566 1566 1565 1563 1562
1546 1549 1551 1553 1555 1557 1558 1560 1561 1562 1563 1564 1565 1565 1566 1566 1567 1567 1567 1567 1568 1568 1568 1568 1568 1568 1568 1568 1568 1568 1568 1568 1568 1568 1568 1569 1569 1569 1568 1567 1566 1565 1563